Location: Champaign/Urbana Astronomical Society Observatory
(40.0333°N, 88.2833°W)
Time: 13:32:32
(UTC-05:00)

AIST 2D - Visible Passes

Search period start: 21 May 2019 00:00
Search period end: 31 May 2019 00:00
Orbit: 458 x 471 km, 97.2° (Epoch: 21 May)

Date Brightness Start Highest point End Pass type
(mag) Time Alt. Az. Time Alt. Az. Time Alt. Az.
21 May ? 23:27:42 10° NNE 23:28:48 18° NNE 23:28:48 18° NNE visible
22 May ? 22:58:05 10° NE 22:58:07 10° NE 22:58:07 10° NE visible
23 May ? 00:30:40 10° NNW 00:32:04 18° NW 00:32:04 18° NW visible
23 May ? 23:59:45 10° N 00:01:23 25° N 00:01:23 25° N visible
24 May ? 23:29:24 10° NNE 23:30:42 20° NNE 23:30:42 20° NNE visible
25 May ? 22:59:43 10° NE 23:00:00 11° NE 23:00:00 11° NE visible
26 May ? 00:32:25 10° NNW 00:33:57 19° NW 00:33:57 19° NW visible
27 May ? 00:01:29 10° N 00:03:15 27° N 00:03:15 27° N visible
27 May ? 23:31:05 10° NNE 23:32:33 22° NNE 23:32:33 22° NNE visible
28 May ? 23:01:21 10° NE 23:01:51 12° NE 23:01:51 12° NE visible
29 May ? 00:34:10 10° NNW 00:35:48 19° NW 00:35:48 19° NW visible
30 May ? 00:03:10 10° N 00:05:05 29° N 00:05:05 29° N visible
30 May ? 23:32:44 10° NNE 23:34:22 25° NNE 23:34:22 25° NNE visible
